ASX707 KSAN-KVNY

Flight info

Callsign ASX707
Flight time 0h 36m
Altitude 14000
Route CWARD2 LAX CANOG
Aircraft SF50/L-SDGRWY/L

Departure

Time 2026-05-08 20:35
Airport San Diego International Airport (KSAN)

Arrival

Time 2026-05-08 21:11
Airport Van Nuys Airport (KVNY)
Time Latitude Longitude Altitude Speed Heading
2026-05-08 20:13 32.73384 -117.17901 14 ft 0 kts 285°
2026-05-08 20:32 32.73369 -117.17941 15 ft 12 kts 211°
2026-05-08 20:33 32.73331 -117.17956 16 ft 0 kts 187°
2026-05-08 20:33 32.73262 -117.17979 14 ft 18 kts 187°
2026-05-08 20:33 32.73204 -117.17866 13 ft 16 kts 106°
2026-05-08 20:33 32.73199 -117.17845 13 ft 3 kts 105°
2026-05-08 20:34 32.73170 -117.17717 14 ft 18 kts 107°
2026-05-08 20:34 32.73110 -117.17664 13 ft 12 kts 194°
2026-05-08 20:34 32.73058 -117.17734 12 ft 0 kts 283°
2026-05-08 20:35 32.73071 -117.17791 12 ft 32 kts 286°
2026-05-08 20:35 32.73197 -117.18309 21 ft 95 kts 289°
2026-05-08 20:35 32.73415 -117.19184 327 ft 123 kts 288°
2026-05-08 20:35 32.73687 -117.20228 954 ft 136 kts 295°
2026-05-08 20:36 32.74257 -117.21223 1496 ft 155 kts 306°
2026-05-08 20:36 32.74877 -117.22329 2016 ft 171 kts 302°
2026-05-08 20:36 32.75541 -117.23586 2527 ft 187 kts 304°
2026-05-08 20:36 32.76260 -117.24932 3031 ft 197 kts 303°
2026-05-08 20:37 32.77006 -117.26338 3522 ft 204 kts 303°
2026-05-08 20:37 32.77776 -117.27785 4006 ft 209 kts 303°
2026-05-08 20:37 32.78555 -117.29251 4500 ft 211 kts 302°
2026-05-08 20:37 32.79339 -117.30727 4980 ft 211 kts 303°
2026-05-08 20:38 32.80155 -117.32171 5458 ft 209 kts 307°
2026-05-08 20:38 32.81043 -117.33526 5939 ft 207 kts 307°
2026-05-08 20:38 32.81923 -117.34883 6400 ft 207 kts 307°
2026-05-08 20:38 32.82798 -117.36240 6818 ft 207 kts 307°
2026-05-08 20:39 32.83673 -117.37596 7237 ft 207 kts 307°
2026-05-08 20:39 32.84544 -117.38945 7701 ft 204 kts 307°
2026-05-08 20:39 32.85112 -117.39827 8016 ft 202 kts 307°
2026-05-08 20:39 32.85962 -117.41145 8493 ft 199 kts 306°
2026-05-08 20:40 32.87069 -117.42865 9135 ft 195 kts 306°
2026-05-08 20:40 32.87890 -117.44138 9593 ft 194 kts 306°
2026-05-08 20:40 32.88715 -117.45420 9962 ft 198 kts 306°
2026-05-08 20:40 32.89598 -117.46793 9991 ft 220 kts 306°
2026-05-08 20:41 32.90245 -117.47800 9996 ft 233 kts 306°
2026-05-08 20:41 32.91271 -117.49394 9996 ft 251 kts 306°
2026-05-08 20:41 32.92358 -117.51083 9996 ft 262 kts 307°
2026-05-08 20:41 32.93484 -117.52837 9999 ft 270 kts 306°
2026-05-08 20:42 32.94635 -117.54631 9995 ft 275 kts 306°
2026-05-08 20:42 32.95801 -117.56447 9993 ft 278 kts 306°
2026-05-08 20:42 32.96975 -117.58280 9995 ft 279 kts 306°
2026-05-08 20:42 32.98155 -117.60120 9993 ft 280 kts 306°
2026-05-08 20:43 32.99340 -117.61968 9993 ft 281 kts 306°
2026-05-08 20:43 33.00510 -117.63796 9991 ft 281 kts 306°
2026-05-08 20:43 33.01696 -117.65650 9990 ft 281 kts 306°
2026-05-08 20:43 33.02883 -117.67505 9993 ft 281 kts 306°
2026-05-08 20:44 33.04070 -117.69362 9996 ft 282 kts 306°
2026-05-08 20:44 33.05258 -117.71220 9993 ft 282 kts 306°
2026-05-08 20:44 33.06481 -117.73041 9991 ft 281 kts 313°
2026-05-08 20:44 33.07966 -117.74558 9987 ft 281 kts 319°
2026-05-08 20:45 33.09465 -117.76065 9986 ft 282 kts 317°
2026-05-08 20:45 33.10947 -117.77598 9987 ft 282 kts 318°
2026-05-08 20:45 33.12440 -117.79125 9987 ft 282 kts 319°
2026-05-08 20:45 33.13937 -117.80639 9988 ft 283 kts 319°
2026-05-08 20:46 33.15437 -117.82161 9986 ft 283 kts 318°
2026-05-08 20:46 33.16930 -117.83685 9991 ft 283 kts 319°
2026-05-08 20:46 33.18436 -117.85189 9984 ft 282 kts 322°
2026-05-08 20:46 33.20170 -117.86292 9978 ft 284 kts 338°
2026-05-08 20:47 33.22087 -117.86868 9980 ft 284 kts 348°
2026-05-08 20:47 33.24026 -117.87332 9983 ft 284 kts 347°
2026-05-08 20:47 33.25963 -117.87823 9980 ft 285 kts 347°
2026-05-08 20:47 33.27903 -117.88314 9980 ft 285 kts 347°
2026-05-08 20:48 33.29845 -117.88795 9983 ft 285 kts 347°
2026-05-08 20:48 33.31787 -117.89276 9982 ft 285 kts 347°
2026-05-08 20:48 33.33728 -117.89760 9994 ft 285 kts 347°
2026-05-08 20:48 33.35666 -117.90245 9994 ft 285 kts 347°
2026-05-08 20:49 33.37609 -117.90730 9993 ft 285 kts 347°
2026-05-08 20:49 33.39520 -117.91312 9997 ft 283 kts 342°
2026-05-08 20:49 33.41401 -117.92014 9995 ft 283 kts 341°
2026-05-08 20:49 33.43290 -117.92708 9997 ft 284 kts 342°
2026-05-08 20:50 33.45181 -117.93388 9996 ft 284 kts 342°
2026-05-08 20:50 33.47076 -117.94073 9997 ft 285 kts 342°
2026-05-08 20:50 33.48972 -117.94764 10000 ft 285 kts 342°
2026-05-08 20:50 33.50868 -117.95455 10001 ft 285 kts 342°
2026-05-08 20:51 33.52764 -117.96143 10001 ft 285 kts 342°
2026-05-08 20:51 33.54661 -117.96833 10002 ft 285 kts 342°
2026-05-08 20:51 33.56558 -117.97523 10000 ft 285 kts 342°
2026-05-08 20:51 33.58454 -117.98214 10003 ft 285 kts 342°
2026-05-08 20:52 33.60329 -117.98897 10003 ft 285 kts 342°
2026-05-08 20:52 33.62226 -117.99589 10001 ft 285 kts 342°
2026-05-08 20:52 33.64122 -118.00280 10000 ft 285 kts 342°
2026-05-08 20:52 33.66023 -118.00973 9997 ft 285 kts 342°
2026-05-08 20:53 33.67919 -118.01666 9968 ft 285 kts 342°
2026-05-08 20:53 33.69820 -118.02362 9967 ft 285 kts 342°
2026-05-08 20:53 33.71717 -118.03065 9963 ft 284 kts 340°
2026-05-08 20:53 33.73377 -118.04299 9962 ft 282 kts 315°
2026-05-08 20:54 33.74441 -118.06254 9963 ft 280 kts 294°
2026-05-08 20:54 33.75208 -118.08406 9965 ft 279 kts 293°
2026-05-08 20:54 33.76118 -118.10471 9966 ft 281 kts 300°
2026-05-08 20:54 33.77202 -118.12399 9995 ft 281 kts 304°
2026-05-08 20:55 33.78293 -118.14343 9991 ft 282 kts 302°
2026-05-08 20:55 33.79329 -118.16359 9994 ft 282 kts 300°
2026-05-08 20:55 33.80354 -118.18372 9994 ft 282 kts 301°
2026-05-08 20:55 33.81390 -118.20345 9996 ft 283 kts 301°
2026-05-08 20:56 33.82459 -118.22367 9995 ft 283 kts 301°
2026-05-08 20:56 33.83491 -118.24341 9992 ft 283 kts 301°
2026-05-08 20:56 33.84536 -118.26347 10003 ft 283 kts 301°
2026-05-08 20:56 33.85583 -118.28352 10003 ft 283 kts 301°
2026-05-08 20:57 33.86638 -118.30377 9653 ft 289 kts 301°
2026-05-08 20:57 33.87700 -118.32414 9203 ft 284 kts 301°
2026-05-08 20:57 33.88736 -118.34395 8756 ft 276 kts 301°
2026-05-08 20:57 33.89745 -118.36333 8312 ft 270 kts 301°
2026-05-08 20:58 33.90727 -118.38224 8003 ft 263 kts 301°
2026-05-08 20:58 33.91696 -118.40084 7987 ft 262 kts 301°
2026-05-08 20:58 33.92705 -118.41916 7979 ft 263 kts 307°
2026-05-08 20:58 33.94043 -118.43433 7996 ft 266 kts 322°
2026-05-08 20:59 33.95669 -118.44517 7993 ft 269 kts 334°
2026-05-08 20:59 33.97383 -118.45446 7996 ft 270 kts 334°
2026-05-08 20:59 33.99090 -118.46409 7977 ft 271 kts 333°
2026-05-08 20:59 34.00810 -118.47378 7539 ft 271 kts 334°
2026-05-08 21:00 34.02504 -118.48319 7127 ft 266 kts 334°
2026-05-08 21:00 34.04168 -118.49244 6772 ft 262 kts 333°
2026-05-08 21:00 34.05813 -118.50163 6424 ft 260 kts 334°
2026-05-08 21:00 34.07450 -118.51079 6053 ft 259 kts 334°
2026-05-08 21:01 34.09079 -118.51991 5683 ft 257 kts 334°
2026-05-08 21:01 34.10701 -118.52894 5322 ft 255 kts 334°
2026-05-08 21:01 34.12305 -118.53789 4982 ft 252 kts 334°
2026-05-08 21:01 34.13889 -118.54676 4968 ft 250 kts 334°
2026-05-08 21:02 34.15471 -118.55564 4966 ft 252 kts 334°
2026-05-08 21:02 34.17069 -118.56458 4964 ft 255 kts 334°
2026-05-08 21:02 34.18680 -118.57359 4970 ft 256 kts 334°
2026-05-08 21:02 34.20331 -118.58123 4961 ft 256 kts 347°
2026-05-08 21:03 34.22108 -118.58221 4963 ft 257 kts 360°
2026-05-08 21:03 34.23895 -118.58122 4960 ft 257 kts
2026-05-08 21:03 34.25685 -118.58009 4960 ft 258 kts
2026-05-08 21:03 34.27481 -118.57897 4963 ft 258 kts
2026-05-08 21:04 34.29280 -118.57789 4967 ft 258 kts
2026-05-08 21:04 34.31074 -118.57678 4962 ft 258 kts
2026-05-08 21:04 34.32848 -118.57570 4964 ft 260 kts
2026-05-08 21:04 34.34654 -118.57469 4966 ft 258 kts
2026-05-08 21:05 34.36452 -118.57360 4963 ft 258 kts
2026-05-08 21:05 34.38250 -118.57254 4981 ft 258 kts
2026-05-08 21:05 34.40048 -118.57147 4977 ft 259 kts
2026-05-08 21:05 34.41851 -118.57038 4978 ft 259 kts
2026-05-08 21:06 34.43634 -118.56765 4955 ft 260 kts 15°
2026-05-08 21:06 34.45140 -118.55604 4960 ft 259 kts 44°
2026-05-08 21:06 34.45995 -118.53709 4955 ft 259 kts 74°
2026-05-08 21:06 34.45980 -118.51545 4961 ft 260 kts 103°
2026-05-08 21:07 34.45095 -118.49660 4958 ft 261 kts 134°
2026-05-08 21:07 34.43572 -118.48542 4958 ft 257 kts 164°
2026-05-08 21:07 34.41811 -118.48471 4971 ft 254 kts 193°
2026-05-08 21:07 34.40117 -118.49091 4974 ft 255 kts 201°
2026-05-08 21:08 34.38445 -118.49817 4981 ft 255 kts 201°
2026-05-08 21:08 34.36732 -118.50367 4978 ft 256 kts 190°
2026-05-08 21:08 34.34965 -118.50408 4976 ft 259 kts 177°
2026-05-08 21:08 34.33172 -118.50200 4556 ft 258 kts 175°
2026-05-08 21:09 34.31492 -118.50019 4017 ft 228 kts 177°
2026-05-08 21:09 34.29981 -118.49896 3416 ft 209 kts 178°
2026-05-08 21:09 34.28571 -118.49756 2822 ft 198 kts 175°
2026-05-08 21:09 34.27240 -118.49628 2342 ft 184 kts 178°
2026-05-08 21:10 34.26083 -118.49525 2077 ft 153 kts 177°
2026-05-08 21:10 34.25084 -118.49427 1721 ft 138 kts 176°
2026-05-08 21:10 34.24167 -118.49338 1473 ft 124 kts 175°
2026-05-08 21:10 34.23358 -118.49260 1272 ft 117 kts 175°
2026-05-08 21:11 34.22545 -118.49183 1055 ft 116 kts 176°
2026-05-08 21:11 34.21749 -118.49110 881 ft 114 kts 176°
2026-05-08 21:11 34.21047 -118.49045 789 ft 84 kts 176°
2026-05-08 21:11 34.20578 -118.49004 775 ft 37 kts 180°
2026-05-08 21:12 34.20428 -118.49054 767 ft 6 kts 228°
2026-05-08 21:12 34.20422 -118.49063 767 ft 2 kts 240°
2026-05-08 21:12 34.20436 -118.49099 768 ft 9 kts 332°
2026-05-08 21:12 34.20512 -118.49111 772 ft 14 kts 355°
2026-05-08 21:13 34.20625 -118.49122 775 ft 19 kts 356°
2026-05-08 21:13 34.20754 -118.49133 781 ft 20 kts 354°
2026-05-08 21:13 34.20843 -118.49174 785 ft 8 kts 269°
2026-05-08 21:13 34.20842 -118.49201 784 ft 0 kts 266°